Home > Time Zones > World Clock > Weather > Iran > Yazd > Past weeks

Flag for Iran Weather past 2 weeks in Yazd, Iran

Now
73 °F

Passing clouds.


Feels Like: 75 °F
Forecast: 59 / 82 °F
Wind: 14 mph from Northwest

Location: Yazd Airport


UV Index: 7 (High)

Visibility: N/A


Pressure: 30.15 "Hg

Humidity: 19%

Dew point: 28 °F

Location of YazdLocation

Historic Weather in Yazd

°F

Yazd temperature yesterday

Maximum temperature yesterday: 84 °F (at 2:30 PM)
Minimum temperature yesterday: 64 °F (at 5:20 AM)
Average temperature yesterday: 75 °F

Past Weeks' High & Low Weather Summary

 TemperatureHumidityPressure
High88 °F (Apr 11, 2:00 PM)100% (Apr 2, 10:30 PM)30.27 "Hg (Apr 2, 10:30 PM)
Low48 °F (Apr 4, 3:30 AM)6% (Apr 8, 4:30 PM)29.71 "Hg (Apr 3, 3:30 AM)
Average69 °F28%30.08 "Hg
* Reported Apr 2 9:30 AM — Apr 17 10:00 AM, Yazd, Weather by CustomWeather, © 2014

Note: Actual official high and low records may vary slightly from our data, if they occured in-between our weather recording intervals... More about our weather records

Advertising

Historic Weather Conditions — Data for Previous 24 hours

 ConditionsComfort  
Time TempWeatherWind HumidityBarometerVisibility
10:00 AM
Apr 17
73 °FPassing clouds.14 mph19%30.15 "HgN/A
9:30 AM72 °FPassing clouds.16 mph20%30.15 "HgN/A
9:00 AM72 °FPassing clouds.12 mph22%30.15 "HgN/A
8:30 AM70 °FPassing clouds.9 mph21%30.15 "HgN/A
8:00 AM70 °FPassing clouds.7 mph21%30.15 "HgN/A
7:30 AM66 °FPassing clouds.9 mph26%30.12 "HgN/A
7:00 AM64 °FPassing clouds.9 mph28%30.12 "HgN/A
6:30 AM64 °FPassing clouds.7 mph30%30.09 "HgN/A
6:00 AM66 °FPassing clouds.9 mph28%30.09 "HgN/A
5:30 AM66 °FPassing clouds.9 mph26%30.09 "HgN/A
4:30 AM68 °FClear.9 mph24%30.09 "Hg10 mi
3:30 AM68 °FClear.12 mph26%30.09 "Hg10 mi
2:30 AM73 °FPassing clouds.14 mph20%30.07 "HgN/A
1:30 AM73 °FPassing clouds.14 mph20%30.09 "HgN/A
12:30 AM72 °FPassing clouds.9 mph27%30.09 "HgN/A
12:00 AM73 °FPassing clouds.9 mph23%30.09 "HgN/A
11:30 PM
Apr 16
72 °FPassing clouds.12 mph23%30.07 "HgN/A
11:00 PM73 °FPassing clouds.12 mph22%30.07 "HgN/A
10:30 PM75 °FPassing clouds.12 mph18%30.07 "HgN/A
10:00 PM75 °FPassing clouds.5 mph24%30.04 "Hg5 mi
9:30 PM75 °FPassing clouds.5 mph25%30.04 "HgN/A
9:00 PM75 °FPassing clouds.7 mph22%30.04 "HgN/A
8:30 PM77 °FPassing clouds.5 mph26%30.04 "HgN/A
8:00 PM79 °FPassing clouds.5 mph24%30.01 "HgN/A
7:30 PM81 °FScattered clouds.5 mph20%30.04 "HgN/A
7:00 PM79 °FScattered clouds.2 mph24%30.01 "HgN/A
6:30 PM79 °FScattered clouds.2 mph30%30.01 "HgN/A
5:30 PM79 °FThunderstorms. Scattered clouds.16 mph21%30.04 "Hg5 mi
4:30 PM84 °FScattered clouds.7 mph16%30.04 "HgN/A
3:30 PM84 °FPassing clouds.5 mph16%30.07 "HgN/A
2:30 PM84 °FPassing clouds.No wind16%30.09 "HgN/A
1:30 PM82 °FPassing clouds.No wind17%30.12 "HgN/A
12:30 PM81 °FPassing clouds.No wind20%30.15 "HgN/A
11:30 AM77 °FPassing clouds.5 mph22%30.15 "HgN/A
Weather by CustomWeather, © 2014

See weather overview